Home > Weather > Beaumont > Past weeks

Flag for U.S.A. Weather for the Past 2 Weeks in Beaumont, Texas, U.S.A.

Now
58 °F

Sunny.


Feels Like: 54 °F
Forecast: 38 / 61 °F
Wind: 18 mph from Northwest

Location: Jefferson County Airport

Current Time: Feb 9, 2016 at 12:16:30 PM

Latest Report: Feb 9, 2016 at 11:53 AM


Visibility: 10 mi

Pressure: 30.28 "Hg

Humidity: 20%

Dew point: 17 °F

Location of BeaumontLocation

Historic Weather in Beaumont — Graph

°F

Beaumont Temperature Yesterday

Maximum temperature yesterday: 63 °F (at 1:53 PM)
Minimum temperature yesterday: 41 °F (at 9:53 PM)
Average temperature yesterday: 51 °F

High & Low Weather Summary for the Past Weeks

 TemperatureHumidityPressure
High77 °F (Jan 31, 12:53 PM)100% (Jan 29, 2:53 AM)30.50 "Hg (Jan 29, 2:53 AM)
Low31 °F (Jan 28, 5:53 AM)13% (Feb 8, 2:53 PM)29.64 "Hg (Feb 2, 2:53 AM)
Average54 °F72%30.11 "Hg
* Reported Jan 25 10:53 AM — Feb 9 10:53 AM, Beaumont, Weather by CustomWeather, © 2016

Note: Actual official high and low records may vary slightly from our data, if they occured in-between our weather recording intervals... More about our weather records

Advertising

Beaumont Weather History for the Previous 24 Hours

 ConditionsComfort  
Time TempWeatherWind HumidityBarometerVisibility
10:53 AM
Tue, Feb 9
55 °FSunny.15 mph22%30.32 "Hg10 mi
9:53 AM51 °FSunny.15 mph27%30.33 "Hg10 mi
8:53 AM48 °FSunny.15 mph32%30.32 "Hg10 mi
7:53 AM41 °FSunny.9 mph45%30.31 "Hg10 mi
6:53 AM35 °FClear.5 mph61%30.30 "Hg10 mi
5:53 AM39 °FClear.7 mph45%30.28 "Hg10 mi
4:53 AM39 °FClear.8 mph45%30.25 "Hg10 mi
3:53 AM42 °FClear.9 mph38%30.24 "Hg10 mi
2:53 AM44 °FClear.10 mph35%30.24 "Hg10 mi
1:53 AM43 °FClear.9 mph40%30.25 "Hg10 mi
12:53 AM44 °FClear.10 mph38%30.26 "Hg10 mi
11:53 PM
Mon, Feb 8
42 °FClear.7 mph49%30.26 "Hg10 mi
10:53 PM41 °FClear.7 mph55%30.25 "Hg10 mi
9:53 PM41 °FClear.6 mph51%30.25 "Hg10 mi
8:53 PM49 °FClear.8 mph28%30.24 "Hg10 mi
7:53 PM50 °FClear.10 mph27%30.22 "Hg10 mi
6:53 PM50 °FClear.9 mph27%30.20 "Hg10 mi
5:53 PM55 °FScattered clouds.16 mph19%30.18 "Hg10 mi
4:53 PM59 °FSunny.20 mph17%30.16 "Hg10 mi
3:53 PM61 °FScattered clouds.23 mph15%30.15 "Hg10 mi
2:53 PM62 °FSunny.24 mph13%30.15 "Hg10 mi
1:53 PM63 °FSunny.18 mph16%30.19 "Hg10 mi
12:53 PM62 °FSunny.20 mph18%30.22 "Hg10 mi
Weather by CustomWeather, © 2016

See weather overviewHow to use our weather pages